sat.trackr.live / text

‹ back to catalog

STARLINK-30920

NORAD 58378 · 2023-178E

PAYLOAD ACTIVE UNKNOWN

§ Identity

Operator
Country
US
Launch date
2023-11-20
Launch site
AFWTR
Launch vehicle
Mass (kg)
RCS (m²)

Purposes: comms

External: N2YO · Heavens-Above · Gunter

§ Orbital elements

Epoch: 2026-09-20T03:54:17.064000Z

Period
93.85 min
Inclination
53.1588°
Eccentricity
0.0001894
Mean motion
15.34394959 rev/d
Perigee alt
461.4 km
Apogee alt
464.0 km
Semi-major
6,840.9 km
B*
-3.8442e-5
RAAN
163.0643°
Arg perigee
49.7601°
Mean anomaly
310.3567°
Rev number
15,987

§ Raw data

STARLINK-309201 58378U 23178E   26263.16269750 -.00001675  00000+0 -38442-4 0  99922 58378  53.1588 163.0643 0001894  49.7601 310.3567 15.34394959159872

JSON: /api/v1/satellites/58378 · /tle

For live sub-satellite position, see the globe view (requires WebGL).

§ Visibility from observer

Set your observer location to see the next 7 days of passes ≥ 10°. The values pass through the URL so the page stays shareable.

No JS? Fill the form by hand. The geolocation button needs JavaScript.